Location: Bacharowice
(49.9333°N, 19.5833°E)
Time: 23:15:37
(UTC+00:00)

Cosmos 2082 Rocket - Pass Details

Date: 11 May 2021
Orbit: 834 x 853 km, 71.0° (Epoch: 21 June)

Event Time Altitude Azimuth Distance (km) Brightness Sun altitude
Rises 19:52:31 0° 332° (NNW) 3,393 7.1 -12.8°
Reaches altitude 10° 19:55:00 10° 335° (NNW) 2,456 6.0 -13.0°
Maximum altitude 20:00:36 66° 58° (ENE) 910 2.3 -13.6°
Enters shadow 20:04:30 20° 137° (SE) 1,829 3.3 -14.0°
